Lid_Strength_Index
14 17 19 19 15 15 15 16 17 15 12 12 13 12 11 9 8 8 8 7 7 6 5 5 5 5 4 4 4 4 6 7 8 9 10 10 11 11 11 11 11 11 11 11
17 18 15 15 15 15 16 18 18 16 13 12 13 14 12 10 9 8 8 9 7 6 8 7 5 5 5 4 5 6 6 7 7 8 8 10 11 11 11 11 11 11 11 12
18 16 14 15 15 16 17 17 17 16 13 10 12 15 13 11 8 8 7 8 7 6 8 7 7 6 5 4 6 6 6 7 7 8 10 11 12 12 12 12 12 12 12 13
17 14 14 15 16 13 19 11 11 12 14 17 12 19 14 11 10 9 8 8 9 6 7 7 6 7 5 5 5 5 6 7 7 9 10 11 11 13 13 13 13 13 13 13
16 15 15 14 12 10 13 9 11 12 14 15 15 17 15 12 12 11 9 8 9 6 7 7 7 7 5 5 6 6 6 7 8 8 9 10 12 13 13 13 14 13 13 13
13 9 10 10 9 9 8 11 11 12 14 19 15 17 16 13 12 11 9 8 8 7 8 7 7 7 8 8 8 8 8 9 9 9 10 11 13 14 14 14 14 14 14 15
12 11 10 8 11 10 11 14 19 20 20 21 14 17 15 11 10 9 9 8 8 8 8 9 9 9 9 10 9 10 9 10 10 10 11 12 13 14 14 14 15 15 16 16
16 18 12 9 11 13 12 13 18 23 22 20 14 19 15 10 9 7 7 7 8 9 9 9 10 10 10 10 10 10 10 10 11 11 12 12 13 13 13 14 15 15 16 16
17 15 10 10 10 10 12 15 12 17 19 19 19 15 12 10 11 9 8 8 8 9 9 11 11 11 10 10 10 10 11 11 12 12 12 12 12 13 14 14 14 15 16 16
12 16 12 11 9 9 11 10 16 16 24 23 19 17 16 13 12 10 10 9 9 10 11 12 12 12 12 11 11 11 11 11 12 12 12 12 13 13 14 14 15 16 16 16
11 13 14 12 13 15 13 14 13 14 16 21 21 19 12 13 13 12 9 8 10 11 12 13 13 12 12 12 12 12 12 13 13 13 12 13 14 14 14 15 15 15 15 16
10 12 17 14 11 10 11 13 13 17 18 17 17 17 10 13 14 13 9 9 10 10 12 12 13 14 13 13 13 13 13 13 13 14 14 14 14 14 15 16 16 16 16 16
10 16 19 19 14 11 13 12 12 12 14 17 19 17 10 10 11 10 11 11 11 12 13 14 14 14 15 14 14 14 14 14 14 14 14 14 15 15 15 16 16 16 16 17
9 14 15 18 15 13 14 12 12 13 17 17 16 15 12 11 13 11 12 12 12 12 14 14 15 15 15 15 14 15 15 14 14 14 14 15 15 15 16 16 16 17 17 18
14 20 16 14 14 14 13 13 13 14 14 16 15 14 12 11 12 11 12 12 12 13 13 15 15 15 15 15 15 15 15 15 14 15 15 15 16 16 16 17 17 17 18 18
13 20 18 19 16 13 15 13 13 13 13 13 13 13 9 10 10 11 11 12 13 13 13 14 15 15 16 15 15 15 15 15 15 15 15 16 16 17 17 17 17 17 18 17
16 15 20 24 17 18 21 16 14 13 12 13 15 12 11 11 10 11 11 11 12 12 13 14 14 15 15 15 15 15 15 15 15 16 16 17 17 17 17 17 17 18 17 17
19 16 16 22 22 26 15 14 13 14 13 13 13 11 11 11 11 11 11 12 12 12 12 13 13 14 14 14 14 14 14 15 16 16 16 16 16 17 17 17 17 17 17 17
14 14 22 25 29 19 15 14 15 15 14 14 15 12 11 12 12 12 11 12 12 12 12 12 11 12 13 13 13 14 15 15 16 16 16 16 16 16 16 16 17 17 17 17
12 12 16 26 27 27 13 12 13 13 17 14 14 13 13 12 13 12 13 12 12 13 13 13 14 13 13 13 14 15 15 15 16 16 16 15 15 15 16 16 17 17 17 16
24 19 19 20 21 22 14 12 12 19 15 13 14 13 12 13 13 13 12 12 11 13 14 14 14 15 15 15 15 15 16 16 15 15 15 16 15 15 16 17 18 18 18 17
22 22 23 20 19 21 13 13 14 11 12 14 14 12 12 13 13 14 13 12 12 13 14 15 15 15 15 15 14 15 15 15 15 15 15 16 16 16 17 18 19 20 20 20
23 18 20 18 17 13 13 12 10 11 12 13 14 14 13 12 13 14 13 13 13 14 14 15 15 16 16 15 14 15 15 15 15 16 16 17 18 18 18 19 20 21 21 19
19 17 19 18 17 16 14 13 13 13 13 13 13 14 14 13 12 14 13 14 14 14 14 15 15 15 16 16 16 16 15 16 16 16 17 19 19 19 20 18 17 17 18 18
18 18 20 20 17 16 16 15 14 14 13 13 13 14 14 14 13 14 14 13 13 13 14 14 15 15 17 18 18 19 17 16 17 18 18 18 17 17 17 17 17 17 17 17
18 18 19 20 16 17 16 16 15 15 14 14 14 14 14 14 13 14 14 13 13 14 15 17 17 18 19 18 18 19 19 17 16 17 17 17 17 18 19 20 20 15 14 14